User: anonymous   Login
Location: Unspecified
(0.0000°N, 0.0000°E)
Time: 09:11:21
(UTC+00:00)
Language:

Astrid 2 - Orbit

View from above orbital plane
View from above orbital plane
View from above satellite
View from above satellite

Ground track
Ground track

The orbit data is extracted from the following two-line orbital elements,

1 25568U 98072B   18018.54046219 +.00000054 +00000-0 +42421-4 0  9997
2 25568 082.9486 188.3684 0024457 344.5090 046.8139 13.72525807956731
Epoch (UTC): 18 January 2018 12:58:15
Eccentricity: 0.0024457
inclination: 82.9486°
perigee height: 972 km
apogee height: 1008 km
right ascension of ascending node: 188.3684°
argument of perigee: 344.5090°
revolutions per day: 13.72525807
mean anomaly at epoch: 46.8139°
orbit number at epoch: 95673

The dashed part of the orbit path shows where the satellite is in the earth's shadow,  

DLR